TimeEST,TemperatureF,Dew PointF,Humidity,Sea Level PressureIn,VisibilityMPH,Wind Direction,Wind SpeedMPH,Gust SpeedMPH,PrecipitationIn,Events,Conditions,WindDirDegrees,DateUTC
12:53 AM,27.0,26.1,96,30.64,10.0,NNE,5.8,-,N/A,,Clear,30,2012-11-18 05:53:00
1:53 AM,32.0,28.9,88,30.63,10.0,NE,6.9,-,N/A,,Clear,40,2012-11-18 06:53:00
2:53 AM,33.1,28.0,82,30.62,10.0,NNE,5.8,-,N/A,,Clear,20,2012-11-18 07:53:00
3:53 AM,36.0,30.9,82,30.62,10.0,North,6.9,-,N/A,,Clear,10,2012-11-18 08:53:00
4:53 AM,33.1,30.0,89,30.64,10.0,NNE,3.5,-,N/A,,Clear,20,2012-11-18 09:53:00
5:53 AM,36.0,32.0,86,30.66,10.0,NNE,3.5,-,N/A,,Clear,20,2012-11-18 10:53:00
6:53 AM,37.0,33.1,86,30.66,10.0,NNE,6.9,-,N/A,,Clear,20,2012-11-18 11:53:00
7:53 AM,44.1,36.0,73,30.67,10.0,NE,5.8,-,N/A,,Clear,40,2012-11-18 12:53:00
8:53 AM,46.0,33.1,61,30.67,10.0,NE,12.7,-,N/A,,Clear,50,2012-11-18 13:53:00
9:53 AM,48.0,33.1,56,30.67,10.0,NE,15.0,-,N/A,,Clear,50,2012-11-18 14:53:00
10:53 AM,48.9,33.1,54,30.67,10.0,ENE,10.4,21.9,N/A,,Clear,60,2012-11-18 15:53:00
11:53 AM,48.9,33.1,54,30.64,10.0,NE,13.8,20.7,N/A,,Clear,50,2012-11-18 16:53:00
12:53 PM,48.9,33.1,54,30.62,10.0,NE,17.3,-,N/A,,Clear,50,2012-11-18 17:53:00
1:53 PM,48.9,33.1,54,30.61,10.0,NNE,16.1,-,N/A,,Clear,30,2012-11-18 18:53:00
2:53 PM,46.9,33.1,59,30.63,10.0,NE,12.7,-,N/A,,Scattered Clouds,40,2012-11-18 19:53:00
3:53 PM,45.0,34.0,65,30.62,10.0,NE,10.4,-,N/A,,Mostly Cloudy,50,2012-11-18 20:53:00
4:53 PM,43.0,34.0,71,30.62,10.0,NE,8.1,-,N/A,,Partly Cloudy,50,2012-11-18 21:53:00
5:53 PM,43.0,34.0,71,30.63,10.0,NE,9.2,-,N/A,,Scattered Clouds,50,2012-11-18 22:53:00
6:53 PM,43.0,35.1,74,30.62,10.0,NE,10.4,-,N/A,,Partly Cloudy,40,2012-11-18 23:53:00
7:53 PM,43.0,35.1,74,30.61,10.0,NE,8.1,-,N/A,,Clear,50,2012-11-19 00:53:00
8:53 PM,42.1,36.0,79,30.61,10.0,NE,6.9,-,N/A,,Partly Cloudy,40,2012-11-19 01:53:00
9:51 PM,44.6,35.6,71,30.59,10.0,NE,9.2,-,N/A,,Mostly Cloudy,50,2012-11-19 02:51:00
9:53 PM,44.1,37.0,76,30.59,10.0,NE,8.1,-,N/A,,Mostly Cloudy,50,2012-11-19 02:53:00
10:53 PM,44.1,37.9,79,30.60,10.0,NNE,4.6,-,N/A,,Overcast,30,2012-11-19 03:53:00
11:53 PM,43.0,37.0,80,30.58,10.0,NE,5.8,-,N/A,,Mostly Cloudy,40,2012-11-19 04:53:00